RH
95 91 94 96 97 97 98 97 97 97 97 98 95 96 96 94 96 96 96 97 96 97 98 94 93 96 98 96 96 91 94 90 93 91 86 84 79 71 66 59 50 42 34
70 69 72 76 81 81 83 86 88 88 86 87 88 89 90 93 96 96 95 93 93 94 96 98 96 94 95 96 94 94 96 95 92 90 87 80 76 69 69 57 45 38 36
66 65 62 61 59 58 58 57 56 56 57 60 65 68 70 72 80 86 89 89 89 89 90 88 92 98 95 95 96 96 96 97 92 88 81 76 76 70 61 50 40 36 35
64 59 57 54 52 51 51 49 48 46 45 46 48 49 48 51 56 62 68 72 77 79 80 82 84 85 94 96 98 96 96 96 86 81 77 74 69 62 55 43 38 37 36
43 41 39 38 37 37 37 37 37 37 37 37 37 38 41 45 50 52 53 56 58 62 64 69 72 74 79 85 91 98 97 90 81 71 68 63 54 52 48 43 40 37 37
34 32 29 29 29 28 27 26 26 27 30 31 33 33 32 36 40 42 45 47 50 52 56 61 63 65 72 78 86 95 89 85 78 79 73 64 64 57 50 39 39 39 40
24 23 21 20 18 18 18 17 18 20 21 22 26 29 29 34 37 39 41 43 46 48 51 53 58 62 69 73 81 92 96 89 95 90 86 93 84 61 49 42 41 41 45
19 18 17 16 16 15 14 14 14 14 14 14 15 17 22 29 32 36 42 44 47 49 49 52 55 60 64 70 70 79 89 93 89 88 85 82 86 69 48 44 43 48 50
16 16 16 15 14 13 13 12 12 12 12 12 12 13 15 18 25 33 38 43 47 50 56 56 59 60 66 64 69 69 76 82 88 83 84 79 72 55 45 46 49 52 52
15 14 13 13 13 13 13 14 14 15 15 15 15 16 15 15 21 26 33 39 44 50 55 58 62 66 72 72 73 71 68 66 68 62 64 67 58 54 53 55 56 56 55
15 15 15 16 18 17 17 16 17 17 18 19 19 20 22 22 23 28 28 41 45 47 52 59 64 70 74 75 78 80 79 82 72 70 66 62 61 60 61 61 59 58 57
9 9 8 8 9 10 11 11 12 13 14 15 16 18 22 25 28 33 39 44 47 56 55 59 66 73 76 78 81 85 85 80 74 71 71 68 66 67 67 65 63 62 55
13 13 12 10 10 12 15 16 17 19 18 17 16 14 13 15 23 31 39 53 56 59 64 66 70 80 84 82 81 85 87 82 80 79 75 74 75 74 69 67 67 61 57
18 18 18 19 19 19 22 27 28 28 28 27 25 22 20 18 16 19 31 43 63 70 72 81 84 87 92 87 90 90 90 89 87 86 85 85 82 78 74 71 68 63 60
22 23 23 25 26 27 30 35 41 43 44 38 33 35 33 29 24 25 25 33 45 65 79 85 95 94 98 96 95 93 92 93 92 94 94 92 91 87 80 74 70 67 64
27 27 30 33 36 40 43 44 51 53 54 48 44 43 38 36 32 29 26 26 33 46 76 80 90 97 92 98 99 97 98 97 98 97 99 96 96 92 85 78 74 72 67
29 33 38 43 47 50 58 61 61 64 65 64 58 52 48 45 41 35 32 30 27 38 56 77 87 98 98 94 97 98 99 99 98 99 98 99 98 98 86 77 76 74 68
38 44 50 54 57 59 64 70 76 76 77 72 72 64 56 53 51 46 40 36 31 32 45 58 76 90 97 98 92 97 98 98 98 98 98 98 98 98 94 83 79 76 75
45 53 58 62 66 73 76 76 82 84 88 86 81 75 72 63 58 53 50 44 40 36 37 47 60 78 87 97 97 96 97 96 97 97 98 98 97 95 94 89 84 83 79
53 60 65 68 73 78 82 85 91 95 93 90 92 93 88 77 67 60 57 54 49 44 39 39 49 62 81 89 96 98 97 96 97 97 96 95 98 98 97 93 87 82 72
60 62 69 72 77 82 86 89 90 93 94 96 94 94 96 93 80 69 63 59 55 51 45 40 43 54 67 86 95 97 96 97 97 97 97 97 98 95 96 97 92 84 81
61 67 73 78 83 84 88 90 90 88 94 94 93 93 94 91 87 82 71 63 59 56 50 43 39 46 61 78 92 97 98 97 97 98 98 98 98 98 97 97 95 89 82
69 74 81 87 93 96 95 94 94 93 88 89 94 93 91 88 84 82 78 68 60 57 54 48 41 45 58 76 90 95 97 97 98 97 98 95 94 96 97 97 97 90 82
76 81 87 92 95 97 98 99 99 98 99 96 93 91 90 90 86 81 77 71 64 59 56 52 44 41 58 72 89 95 93 95 96 97 95 91 93 95 96 97 93 89 87
77 83 90 96 96 98 99 98 98 98 97 96 93 90 88 87 84 82 78 74 68 61 57 53 46 42 55 70 85 96 93 90 93 95 94 89 92 95 97 97 96 94 84
79 83 90 96 98 99 99 98 98 99 98 96 91 91 91 89 87 85 82 79 72 62 57 54 47 44 67 75 79 91 96 96 95 95 91 91 95 96 97 97 94 85 84